Dalhart, TX

10:35 PM CDT on May 27, 2017 (GMT -0500)
Dalhart Municipal

Weather History for KDHT - October, 2013

Change the Weather History Date:

Monday, October 28, 2013

  Actual Average Record
Temperature  
Mean Temperature 61 °F 52 °F  
Max Temperature 79 °F 68 °F 88 °F (2016)
Min Temperature 42 °F 36 °F 23 °F (1970)
Degree Days  
Heating Degree Days 4 13  
Month to date heating degree days 262 254  
Since 1 July heating degree days 276 317  
Cooling Degree Days 0 0  
Month to date cooling degree days 13 8  
Year to date cooling degree days 1576 1136  
Growing Degree Days 12 (Base 50)    
Moisture  
Dew Point 37 °F    
Average Humidity 48    
Maximum Humidity 70    
Minimum Humidity 25    
Precipitation  
Precipitation 0.00 in 0.04 in 0.88 in (2009)
Month to date precipitation T 1.34  
Year to date precipitation 6.66 16.34  
Snow  
Snow 0.00 in 0.10 in T in (1976)
Month to date snowfall T 0.5  
Since 1 July snowfall T 0.5  
Since 1 September snowfall T 0.5  
Snow Depth 0.00 in    
Sea Level Pressure  
Sea Level Pressure 29.84 in    
Wind  
Wind Speed 10 mph (SSW)    
Max Wind Speed 24 mph    
Max Gust Speed 30 mph    
Visibility 10 miles    
Events      
T = Trace of Precipitation, MM = Missing Value Source: NWS Daily Summary

Daily Weather History Graph

Daily Weather History Graph

Search for Another Location

Airport or City:

Trip Planner

Search our weather history database for the weather conditions in past years. The results will help you decide how hot, cold, wet, or windy it might be!

Date:

Astronomy

Oct. 28, 2013 Rise Set
Actual Time 8:09 AM CDT 6:58 PM CDT
Civil Twilight 7:42 AM CDT 7:24 PM CDT
Nautical Twilight 7:12 AM CDT 7:54 PM CDT
Astronomical Twilight 6:42 AM CDT 8:24 PM CDT
Moon 2:15 AM CDT 3:31 PM CDT
Length of Visible Light 11h 41m
Length of Day
10h 49m
Waning Crescent, 34% of the Moon is Illuminated
Oct 28
Waning Crescent
Nov 3
New
Nov 9
First Quarter
Nov 17
Full
Nov 25
Last Quarter

Hourly Weather History & Observations

Time (CDT) Temp. Windchill Dew Point Humidity Pressure Visibility Wind Dir Wind Speed Gust Speed Precip Events Conditions
12:53 AM 48.0 °F - 33.1 °F 56% 29.83 in 10.0 mi SSW 10.4 mph - N/A   Clear
1:53 AM 52.0 °F - 35.1 °F 53% 29.81 in 10.0 mi SSW 12.7 mph - N/A   Clear
2:53 AM 50.0 °F - 35.1 °F 57% 29.81 in 10.0 mi SSW 10.4 mph - N/A   Clear
3:53 AM 45.0 °F 42.6 °F 34.0 °F 65% 29.83 in 10.0 mi South 4.6 mph - N/A   Clear
4:53 AM 46.0 °F 41.0 °F 35.1 °F 66% 29.82 in 10.0 mi South 10.4 mph - N/A   Clear
5:53 AM 48.0 °F - 35.1 °F 61% 29.83 in 10.0 mi South 10.4 mph - N/A   Clear
6:53 AM 46.0 °F 44.8 °F 34.0 °F 63% 29.84 in 10.0 mi SSE 3.5 mph - N/A   Clear
7:53 AM 44.1 °F 40.8 °F 33.1 °F 65% 29.88 in 10.0 mi SSW 5.8 mph - N/A   Clear
8:53 AM 45.0 °F 42.6 °F 35.1 °F 68% 29.91 in 10.0 mi West 4.6 mph - N/A   Clear
9:53 AM 51.1 °F - 36.0 °F 56% 29.91 in 10.0 mi SW 5.8 mph - N/A   Clear
10:53 AM 57.9 °F - 39.0 °F 49% 29.90 in 10.0 mi SSW 6.9 mph - N/A   Clear
11:53 AM 66.0 °F - 39.9 °F 38% 29.87 in 10.0 mi SSW 10.4 mph - N/A   Clear
12:53 PM 68.0 °F - 39.0 °F 35% 29.86 in 10.0 mi SSW 12.7 mph - N/A   Clear
1:53 PM 72.0 °F - 39.0 °F 30% 29.81 in 10.0 mi SSW 12.7 mph 20.7 mph N/A   Clear
2:53 PM 75.9 °F - 42.1 °F 30% 29.77 in 10.0 mi SSW 17.3 mph 26.5 mph N/A   Clear
3:53 PM 78.1 °F - 41.0 °F 27% 29.76 in 10.0 mi SSW 15.0 mph 20.7 mph N/A   Clear
4:53 PM 79.0 °F - 39.0 °F 24% 29.74 in 10.0 mi South 18.4 mph 24.2 mph N/A   Clear
5:53 PM 77.0 °F - 42.1 °F 29% 29.74 in 10.0 mi SSW 17.3 mph 24.2 mph N/A   Scattered Clouds
6:53 PM 70.0 °F - 41.0 °F 35% 29.78 in 10.0 mi WSW 8.1 mph - N/A   Partly Cloudy
7:53 PM 61.0 °F - 37.9 °F 42% 29.84 in 6.0 mi South 8.1 mph - N/A   Haze
8:53 PM 62.1 °F - 35.1 °F 37% 29.86 in 10.0 mi South 4.6 mph - N/A   Clear
9:53 PM 55.9 °F - 33.1 °F 42% 29.86 in 10.0 mi South 5.8 mph - N/A   Clear
10:32 PM 55.4 °F - 37.4 °F 51% 29.97 in 10.0 mi North 15.0 mph - N/A   Clear
10:53 PM 53.1 °F - 37.9 °F 57% 29.89 in 10.0 mi North 13.8 mph - N/A   Clear
11:53 PM 46.0 °F 39.6 °F 34.0 °F 63% 29.91 in 10.0 mi North 15.0 mph 23.0 mph N/A   Clear